Regional Weather Roundup
Issued by NWS Little Rock, AR

Home | Current Version | Previous Version | Graphics & Text | Print | Product List | Glossary On
Versions: 1 2 3 4 5 6 7 8 9 10 11 12 13 14 15 16 17 18 19 20 21 22 23 24 25 26 27 28 29 30 31 32 33 34 35 36 37 38 39 40 41 42 43 44 45 46 47 48 49 50
000
ASUS44 KLZK 070405
RWRLZK

WEATHER ROUNDUP FOR ARKANSAS
NATIONAL WEATHER SERVICE LITTLE ROCK AR
1100 PM CDT MON JUL 06 2015

NOTE: "FAIR" INDICATES FEW OR NO CLOUDS BELOW 12,000 FEET WITH NO
SIGNIFICANT WEATHER AND/OR OBSTRUCTIONS TO VISIBILITY.

ARZ001-003-010-029-070500-
NORTHWEST ARKANSAS

CITY           SKY/WX    TMP DP  RH WIND       PRES   REMARKS
FAYETTEVILLE   CLOUDY    77  70  79 S6        30.01R
FORT SMITH     CLOUDY    80  70  71 SE5       29.97R
HARRISON       CLOUDY    76  72  87 S8        30.02R
BENTONVILLE    CLOUDY    79  70  73 S7        30.00S
ROGERS         CLOUDY    78  70  76 S12       30.00S
SILOAM SPGS    CLOUDY    77  68  73 S9        30.00S
HIGHFILL       CLOUDY    78  72  81 S8        29.99R
$$

ARZ004-005-016-070500-
NORTH CENTRAL ARKANSAS

CITY           SKY/WX    TMP DP  RH WIND       PRES   REMARKS
BATESVILLE     CLOUDY    79  73  83 SE5       30.00S
FLIPPIN        CLOUDY    79  72  78 CALM      29.98R
MTN HOME       CLOUDY    77  72  84 S5        30.00R
$$

ARZ040-041-070500-
WEST CENTRAL ARKANSAS

CITY           SKY/WX    TMP DP  RH WIND       PRES   REMARKS
MENA           CLOUDY    82  73  74 CALM      30.03R HX  88
MOUNT IDA      CLOUDY    82  71  69 VRB5      30.00R HX  86
$$

ARZ009-017-025-026-028-070500-
NORTHEAST ARKANSAS

CITY           SKY/WX    TMP DP  RH WIND       PRES   REMARKS
JONESBORO      CLOUDY    72  68  87 SW7       30.00F
NEWPORT        CLOUDY    78  77  97 S7        30.01S
WALNUT RIDGE   CLOUDY    75  70  83 S13       29.99S
BLYTHEVILLE    LGT RAIN  76  74  93 SW3       30.02S
$$

ARZ022-023-033-042-044-070500-
CENTRAL ARKANSAS

CITY           SKY/WX    TMP DP  RH WIND       PRES   REMARKS
LITTLE ROCK    MOCLDY    80  73  79 S5        30.01R
N LITTLE ROCK  MOCLDY    81  76  84 S7        30.01R HX  86
JACKSONVILLE   MOCLDY    79  74  85 SE3       30.01R
SEARCY         MOCLDY    79  75  87 CALM      30.02R
HOT SPRINGS    MOCLDY    79  73  82 E3        30.02R
RUSSELLVILLE   CLOUDY    79  74  84 CALM      30.00R
CLINTON        FAIR      75  75 100 CALM      30.02R FOG
$$

ARZ036-070500-
EAST ARKANSAS

CITY           SKY/WX    TMP DP  RH WIND       PRES   REMARKS
WEST MEMPHIS   MOCLDY    78  76  93 S9        30.02S
$$

ARZ050-053-066-070-073-070500-
SOUTHWEST ARKANSAS

CITY           SKY/WX    TMP DP  RH WIND       PRES   REMARKS
ARKADELPHIA    FAIR      78  78 100 CALM      30.02R
CAMDEN         PTCLDY    77  73  88 MISG      30.01R
TEXARKANA      MOCLDY    80  73  79 S6        30.02R
EL DORADO      PTCLDY    79  74  84 S7        30.02R
DE QUEEN       CLOUDY    80  74  81 S3        29.98R HX  85
$$

ARZ056-057-069-070500-
SOUTHEAST ARKANSAS

CITY           SKY/WX    TMP DP  RH WIND       PRES   REMARKS
PINE BLUFF     MOCLDY    78  76  93 S6        30.02R
STUTTGART      MOCLDY    81  75  83 MISG      30.00R HX  86
MONTICELLO     CLEAR     80  78  94 S7        30.03R HX  88

$$




USA.gov is the U.S. government's official web portal to all federal, state and local government web resources and services.